Regional Weather Roundup
Issued by NWS

Home | Current Version | Previous Version | Graphics & Text | Print | Product List | Glossary On
Versions: 1 2 3 4 5 6 7 8 9 10 11 12 13 14 15 16 17 18 19 20 21 22 23 24 25 26 27 28 29 30 31 32 33 34 35 36 37 38 39 40 41 42 43 44 45 46 47 48 49 50
000
ASUS43 KBIS 300310
RWRND

NORTH DAKOTA REGIONAL WEATHER ROUNDUP
NATIONAL WEATHER SERVICE BISMARCK ND
1000 PM CDT FRI APR 29 2016

NOTE: "FAIR" INDICATES FEW OR NO CLOUDS BELOW 12,000 FEET WITH NO
SIGNIFICANT WEATHER AND/OR OBSTRUCTIONS TO VISIBILITY.


NDZ001>003-009>011-017-300400-
NORTHWEST NORTH DAKOTA

CITY           SKY/WX    TMP DP  RH WIND       PRES   REMARKS
WILLISTON      CLEAR     50  27  40 E8        30.13R
MINOT          CLEAR     50  26  39 E7        30.15R
MINOT AFB      CLEAR     45  26  46 SE6       30.15R
$$

NDZ018>021-031>035-040>046-300400-
SOUTHWEST NORTH DAKOTA

CITY           SKY/WX    TMP DP  RH WIND       PRES   REMARKS
BISMARCK       CLEAR     48  35  60 NE9       30.12R
DICKINSON      MOCLDY    44  30  57 E7        30.08R
GARRISON         N/A     51  27  39 NE7       30.13R
HETTINGER ARPT MOCLDY    47  33  58 SE9       30.09R
$$

NDZ004>008-012>016-024-026-027-054-300400-
NORTHEAST NORTH DAKOTA

CITY           SKY/WX    TMP DP  RH WIND       PRES   REMARKS
GRAND FORKS    PTCLDY    52  31  44 NE12      30.17R
GRND FRKS AFB  CLEAR     51  28  41 E10       30.17R
DEVILS LAKE    CLEAR     47  33  58 NE7       30.17S
$$

NDZ022-023-025-028>030-036>039-047>053-300400-
SOUTHEAST NORTH DAKOTA

CITY           SKY/WX    TMP DP  RH WIND       PRES   REMARKS
FARGO          CLEAR     55  33  43 NE14      30.12R
JAMESTOWN      CLEAR     50  32  50 NE10      30.11R
$$





USA.gov is the U.S. government's official web portal to all federal, state and local government web resources and services.